Location: Unspecified
(0.0000°N, 0.0000°E)
Time: 10:32:04
(UTC+00:00)

MIDAS 4 DEB - Pass Details

Date: 14 November 2025
Orbit: 3271 x 3959 km, 95.8° (Epoch: 26 July)

Event Time Altitude Azimuth Distance (km) Brightness Sun altitude
Exits shadow 23:52:54 11° 278° (W) 6,635 ? -71.4°
Drops below altitude 10° 23:55:27 10° 270° (W) 6,761 ? -71.3°
Sets 00:06:49 0° 239° (WSW) 7,967 ? -70.7°
